Regional Weather Roundup
Issued by NWS Charleston, WV

Home | Current Version | Previous Version | Graphics & Text | Print | Product List | Glossary On
Versions: 1 2 3 4 5 6 7 8 9 10 11 12 13 14 15 16 17 18 19 20 21 22 23 24 25 26 27 28 29 30 31 32 33 34 35 36 37 38 39 40 41 42 43 44 45 46 47 48 49 50
000
ASUS41 KRLX 021310
RWRRLX
West Virginia Regional Weather Roundup
National Weather Service Charleston WV
900 AM EDT SUN AUG 02 2015

Note: "fair" indicates few or no clouds below 12,000 feet with no
significant weather and/or obstructions to visibility.

WVZ003-021400-
Northern Panhandle of West Virginia

CITY           SKY/WX    TMP DP  RH WIND       PRES   REMARKS
WHEELING       PTSUNNY   68  58  70 S6        29.98R
$$

WVZ009-021400-
Northwest West Virginia

CITY           SKY/WX    TMP DP  RH WIND       PRES   REMARKS
PARKERSBURG    SUNNY     69  60  73 SW6       30.02R
$$

WVZ006-021400-
Western West Virginia

CITY           SKY/WX    TMP DP  RH WIND       PRES   REMARKS
HUNTINGTON     PTSUNNY   66  64  93 CALM      30.01S
$$

WVZ015-021400-
West Central West Virginia

CITY           SKY/WX    TMP DP  RH WIND       PRES   REMARKS
CHARLESTON     MOSUNNY   67  62  84 CALM      30.03R
$$

WVZ022-031-021400-
North Central West Virginia

CITY           SKY/WX    TMP DP  RH WIND       PRES   REMARKS
CLARKSBURG     CLOUDY    65  59  81 SW3       30.03R
MORGANTOWN     CLOUDY    69  57  65 VRB3      30.02S
$$

WVZ025-035-042-045-021400-
Southern West Virginia

CITY           SKY/WX    TMP DP  RH WIND       PRES   REMARKS
BECKLEY        MOSUNNY   66  58  75 SW3       30.10R
LOGAN            N/A     66  63  88 CALM      30.02R
BLUEFIELD      MOSUNNY   68  57  68 CALM      30.11R
LEWISBURG      MOSUNNY   60  58  91 CALM      30.09S
$$

WVZ047-021400-
Northern Mountains of West Virginia

CITY           SKY/WX    TMP DP  RH WIND       PRES   REMARKS
ELKINS         MOSUNNY   60  55  83 CALM      30.08R
$$

WVZ052-021400-
Eastern Panhandle of West Virginia

CITY           SKY/WX    TMP DP  RH WIND       PRES   REMARKS
MARTINSBURG    SUNNY     71  58  63 S6        29.99R
PETERSBURG     SUNNY    N/A N/A N/A CALM      30.02S
$$


USA.gov is the U.S. government's official web portal to all federal, state and local government web resources and services.